Memorial Field Hot Springs US
ICAO: KHOT
IATA: HOT
Category: Medium
Scheduled Services: Yes

Elevation: 540 ft
TransAlt. 18000 ft.

Airport Communications:
MEMPHIS CNTR:127.825
ASOS:119.925
JONESBORO RDO:110
CTAF/UNICOM:123

KHOT Zoom In..

Runways:

(A) RW 05 length 6595 ft width 150 ft
ILS 111.50 / hdg 50

(B) RW 13 length 4098 ft width 100 ft
---- / hdg 130

(C) RW 23 length 6595 ft width 150 ft
---- / hdg 230

(D) RW 31 length 4098 ft width 100 ft
---- / hdg 310

Location; KHOT
Day. 19 / Time. 20.53 Zulu
* Altimeter: 30.30
* Temperature: 18° c. 64.4°f.
* Wind from: VRB° Speed 06 kn.
Dewpoint: 02° c.
Visibility: 10 Statute Miles.
Clouds: Clear (automated report).

KHOT 192053Z AUTO VRB06KT 10SM CLR 18/02 A3030 RMK AO2 SLP257 T01830017 56016


Wind From VRB°
Speed 06 kn.

  YouTube Music Video
 
jpsmedia.com for Web Design  worldairports.se 2018   terms of use